Hourly Data Report for October 25, 2013

All times are specified in Local Standard Time (LST). Add 1 hour to adjust for Daylight Saving Time where and when it is observed.

PENTICTON A
BRITISH COLUMBIA

49°27'45.000" N
119°36'08.000" W
344.40 m
1126146
71889
YYF

Download Data

Hourly Data (October 2013)
Hourly Data Report for October 25, 2013
Temp Definition
°C
Dew Point Temp Definition
°C
Rel Hum Definition
%
Wind Dir Definition
10's deg

Wind Spd Definition
km/h
Visibility Definition
km
Stn Press Definition
kPa
Hmdx Definition


Wind Chill Definition


Weather Definition


TIME
00:00 Legend Double Dagger 7.7 5.5 86 32 9 19.3 98.19     LegendNANA
01:00 Legend Double Dagger 7.3 5.0 85 34 8 16.1 98.24     Cloudy
02:00 Legend Double Dagger 6.8 4.8 87 36 3 16.1 98.24     LegendNANA
03:00 Legend Double Dagger 6.2 4.2 87 3 9 16.1 98.27     LegendNANA
04:00 Legend Double Dagger 6.3 4.0 85 36 8 19.3 98.30     Cloudy
05:00 Legend Double Dagger 6.2 3.9 85 34 10 19.3 98.33     LegendNANA
06:00 Legend Double Dagger 6.6 3.9 83 35 8 16.1 98.38     LegendNANA
07:00 Legend Double Dagger 7.1 4.1 81 35 9 24.1 98.44     Cloudy
08:00 Legend Double Dagger 7.5 4.3 80 31 10 24.1 98.50     LegendNANA
09:00 Legend Double Dagger 8.0 4.4 78 34 7 24.1 98.52     LegendNANA
10:00 Legend Double Dagger 8.6 5.4 80 2 6 24.1 98.55     Cloudy
11:00 Legend Double Dagger 8.7 5.1 78 36 11 24.1 98.56     LegendNANA
12:00 Legend Double Dagger 8.6 5.2 79 35 9 24.1 98.52     LegendNANA
13:00 Legend Double Dagger 9.1 5.7 79 1 9 24.1 98.48     Cloudy
14:00 Legend Double Dagger 9.1 5.5 78 36 9 24.1 98.45     LegendNANA
15:00 Legend Double Dagger 8.8 5.2 78 33 4 24.1 98.45     LegendNANA
16:00 Legend Double Dagger 8.7 5.5 80 2 6 24.1 98.46     Cloudy
17:00 Legend Double Dagger 8.4 5.2 80 2 2 24.1 98.48     LegendNANA
18:00 Legend Double Dagger 8.3 5.4 82 35 10 24.1 98.52     LegendNANA
19:00 Legend Double Dagger 8.1 5.4 83 36 11 24.1 98.56     Cloudy
20:00 Legend Double Dagger 8.1 5.4 83 35 8 24.1 98.58     LegendNANA
21:00 Legend Double Dagger 7.9 5.4 84 35 8 24.1 98.63     LegendNANA
22:00 Legend Double Dagger 7.7 5.0 83 31 12 24.1 98.64     Cloudy
23:00 Legend Double Dagger 7.6 5.1 84 31 8 19.3 98.65     LegendNANA

Notes on Data Quality.

Legend

  • E = Estimated
  • M = Missing
  • NA = Not Available
  • ‡ = Partner data that is not subject to review by the National Climate Archives
Date modified: